Regional Weather Roundup
Issued by NWS Goodland, KS

Home | Current Version | Previous Version | Text Only | Print | Product List | Glossary Off
Versions: 1 2 3 4 5 6 7 8 9 10 11 12 13 14 15 16 17 18 19 20 21 22 23 24 25 26 27 28 29 30 31 32 33 34 35 36 37 38 39 40 41 42 43 44 45 46 47 48 49 50

000
ASUS43 KGLD 040959
RWRGLD

GOODLAND FORECAST AREA HOURLY WEATHER ROUNDUP
NATIONAL WEATHER SERVICE GOODLAND KS
400 AM MDT SAT JUL 04 2015

...OFFICIAL OBSERVATIONS...

CITY           SKY/WX    TMP DP  RH WIND       PRES   REMARKS
GOODLAND KS    PTCLDY    64  59  83 S14       30.01F
HILL CITY KS   MOCLDY    64  60  87 CALM      30.00S
IMPERIAL NEB   PTCLDY    65  58  78 SE8       30.00S
MCCOOK NEB     CLEAR     63  59  87 SE5       29.99F
AKRON CO       PTCLDY    63  60  90 S10       30.02S
BURLINGTON CO  CLEAR     62  59  90 SE12      30.03F
LIMON CO       CLEAR     54  54 100 CALM      30.07F FOG
$$

...UNOFFICIAL OBSERVATIONS...

CITY           SKY/WX    TMP DP  RH WIND       PRES   REMARKS
COLBY KS       CLEAR     66  63  88 SE8       30.02F
GOVE KS          N/A     63  32  31 MISG        N/A
NORTON KS      PTCLDY    61  55  82 SE3       30.00S
SHARON SPRINGS   N/A     65  60  85 S10         N/A
KIT CARSON CO    N/A     60  55  83 MISG        N/A
$$


USA.gov is the U.S. government's official web portal to all federal, state and local government web resources and services.